Location: Peterborough
(44.3091°N, 78.3197°W)
Time: 09:31:56
(UTC-04:00)

A-11 Canister half - Pass Details

Date: 16 September 2024
Orbit: 1515 x 1684 km, 47.2° (Epoch: 02 October)

Event Time Altitude Azimuth Distance (km) Brightness Sun altitude
Rises 19:55:57 0° 240° (WSW) 4,742 12.4 -7.1°
Reaches altitude 10° 19:59:02 10° 239° (WSW) 3,739 11.8 -7.6°
Maximum altitude 20:08:27 79° 154° (SSE) 1,552 9.0 -9.3°
Drops below altitude 10° 20:17:41 10° 70° (ENE) 3,678 10.5 -10.9°
Enters shadow 20:19:06 - 70° (ENE) 4,136 10.8 -11.1°
